Theta_e
352 359 365 367 367 368 369 367 366 364 363 362 360 361 361 361 361 361 360 362 362 363 361 359 357 361 362 360 359 358 356 355 355 354 352 352 357 359 359 358 357 347 356
348 358 364 366 367 368 368 367 365 364 362 362 361 361 361 360 359 361 361 363 362 361 358 358 360 362 362 360 356 356 355 353 352 351 349 349 352 357 360 359 358 351 356
352 357 358 365 367 367 367 366 365 363 362 362 362 361 361 361 359 360 361 362 363 363 361 361 361 361 360 357 354 354 354 353 352 350 349 344 344 356 358 359 360 359 355
358 354 357 364 365 366 366 365 364 364 363 363 363 361 361 362 361 360 361 362 362 364 361 361 360 359 358 355 352 352 351 350 349 349 340 338 339 357 361 362 362 362 359
356 356 358 363 363 365 365 364 363 363 363 363 363 362 362 362 362 361 361 362 361 362 362 361 361 360 357 354 351 350 349 348 346 343 333 330 328 343 363 363 363 363 362
358 357 360 362 362 362 363 363 363 363 363 363 362 362 362 363 362 361 362 362 363 362 361 363 362 360 357 354 351 348 347 348 345 334 330 331 335 360 363 363 359 360 361
359 357 359 362 362 362 363 362 363 363 363 362 363 362 362 362 362 362 362 362 363 363 363 362 361 360 358 356 354 351 351 348 339 333 329 329 333 357 361 361 359 356 353
360 358 357 363 363 362 361 360 361 361 362 362 362 362 362 362 362 362 362 362 362 362 362 362 361 360 358 356 355 354 353 349 341 331 330 329 341 356 361 360 354 353 358
363 357 358 359 361 363 361 360 360 359 360 361 361 361 362 362 362 361 361 361 361 361 360 360 360 359 358 357 356 355 353 350 338 334 333 330 351 358 359 356 354 354 360
356 355 355 356 358 358 358 362 360 359 359 359 360 360 360 361 361 361 359 359 361 360 360 360 360 359 358 358 356 355 354 351 340 335 334 331 353 357 357 357 358 361 359
322 351 353 352 355 352 354 359 361 361 360 359 358 358 357 354 354 357 358 358 360 360 359 359 360 359 358 358 357 356 354 345 337 336 334 340 354 359 359 360 361 360 358
316 324 352 356 354 340 353 355 355 357 355 354 354 352 352 348 345 352 354 358 357 358 358 359 359 359 359 353 350 355 349 344 340 336 333 345 354 361 362 362 360 359 357
318 322 321 325 330 331 348 353 354 355 353 344 343 351 350 349 346 347 347 350 350 356 352 355 355 354 352 349 347 344 342 344 340 337 340 348 354 362 363 361 360 358 356
321 327 330 330 328 329 331 340 351 340 338 342 341 351 350 351 348 346 345 346 347 347 348 347 348 349 349 346 344 342 339 340 340 339 342 354 356 361 363 362 360 358 355
325 330 332 331 332 335 334 333 333 335 338 346 355 354 353 350 343 345 348 347 345 347 347 347 346 342 345 345 345 342 339 336 339 339 336 357 356 359 362 362 360 357 354
327 329 331 331 333 335 337 335 334 333 333 335 348 350 352 344 335 346 343 347 347 347 345 346 343 344 343 341 341 342 340 338 335 335 334 351 355 356 359 361 360 357 354
325 328 330 332 334 334 335 337 337 335 335 330 331 343 348 347 347 350 348 347 346 348 345 343 342 343 342 343 341 341 341 339 338 336 335 344 351 354 356 358 358 357 354
326 326 329 334 330 332 335 336 337 337 336 335 333 333 340 349 349 350 350 347 346 346 345 344 343 341 339 339 338 339 339 339 340 341 338 337 343 349 355 356 357 356 354
325 325 327 328 329 331 333 336 335 336 335 334 332 333 342 349 347 350 348 347 346 346 344 343 341 340 337 337 338 338 337 338 341 343 341 340 340 344 348 354 355 353 352
323 325 326 327 328 327 332 332 333 335 331 331 332 330 332 347 343 347 347 348 348 343 340 339 338 335 334 336 340 339 336 338 339 340 341 341 342 345 346 348 352 351 350
322 324 324 324 326 325 328 328 328 328 335 331 329 329 334 339 349 346 342 343 345 342 338 337 334 332 331 333 329 328 329 333 335 338 340 339 339 343 347 348 350 349 348
317 323 324 325 323 323 326 326 327 330 334 334 331 330 329 332 344 343 343 341 343 341 336 334 332 329 329 329 323 320 316 319 324 333 337 338 339 340 340 341 344 344 344
312 321 325 324 323 323 324 325 326 328 331 331 335 336 337 337 333 328 325 325 336 334 331 332 331 328 323 325 326 322 315 312 317 324 328 333 335 337 338 342 342 341 337
316 319 320 322 322 322 321 322 320 320 323 328 331 334 333 331 328 327 325 327 326 327 327 329 332 328 325 321 324 327 324 322 316 314 321 327 331 332 335 336 339 338 333
315 315 316 317 321 320 318 320 320 319 320 325 328 328 327 329 329 328 327 326 327 327 325 324 323 324 325 324 322 322 322 324 321 316 314 316 322 326 326 329 329 327 326
314 314 314 314 315 318 318 317 317 318 318 319 323 325 328 330 328 327 325 323 324 322 320 318 318 323 326 325 325 324 323 322 322 316 313 315 316 320 318 314 315 317 320
Wind_Speed
4 3 5 7 7 10 11 10 10 10 11 10 11 11 12 12 12 12 12 10 11 11 10 9 8 7 6 6 5 5 5 6 6 6 7 6 7 10 10 8 8 9 9
8 4 3 7 6 9 10 10 11 11 10 9 10 10 10 11 12 11 10 9 8 8 10 9 7 6 6 6 5 4 4 5 4 3 0 3 4 6 8 9 12 9 9
6 6 5 6 7 8 10 9 9 9 10 10 10 10 9 9 11 10 9 8 9 10 9 7 7 6 5 4 3 3 2 2 2 3 4 3 5 9 9 9 10 11 9
10 7 6 6 7 7 9 9 7 9 10 9 9 10 10 10 9 9 9 8 6 9 10 9 8 6 5 4 2 1 1 2 4 6 4 4 6 12 12 10 9 10 10
18 15 11 10 8 8 8 8 6 7 7 7 8 9 9 9 9 9 10 8 8 7 8 8 7 6 6 5 4 2 2 4 5 7 7 6 5 12 15 11 10 9 9
14 12 19 18 12 9 8 7 7 6 7 7 6 6 6 7 8 7 8 9 9 8 7 7 7 7 6 6 5 4 5 5 7 6 7 7 5 13 17 14 14 11 10
14 7 11 17 15 13 11 10 9 8 7 6 6 7 7 7 7 7 8 8 8 8 9 8 8 7 6 6 6 6 7 8 6 6 7 7 5 15 16 15 12 12 11
15 14 9 13 15 15 15 14 11 10 9 6 5 6 6 6 8 8 8 8 8 9 9 10 10 9 9 9 8 9 9 10 8 6 8 7 7 18 19 16 14 12 13
12 13 12 12 14 13 11 8 9 8 9 10 10 9 9 9 8 8 8 8 8 9 8 8 8 8 9 9 10 10 10 12 7 5 9 5 9 18 17 16 14 12 17
11 8 8 6 6 7 6 12 7 7 8 8 11 14 13 11 9 9 9 10 11 10 10 10 10 10 10 10 10 11 13 15 7 7 7 7 9 17 17 16 15 16 18
8 8 7 3 2 1 4 7 10 11 9 8 6 6 6 3 7 10 12 13 15 15 14 13 13 12 11 12 13 14 17 6 7 7 7 11 14 17 16 16 19 20 18
14 12 8 5 1 3 2 3 4 6 7 7 10 11 6 5 6 10 12 17 17 17 17 16 15 15 13 6 6 14 7 9 7 9 7 14 18 19 18 20 22 21 20
8 10 8 4 5 3 2 3 2 2 5 5 7 4 6 7 7 6 6 8 8 13 7 10 9 8 9 8 7 7 7 9 7 7 10 15 18 22 22 22 23 23 22
13 13 15 11 9 8 3 3 5 3 5 5 2 7 5 6 8 7 4 5 8 7 8 7 6 8 9 10 11 10 9 7 7 7 9 13 19 22 22 22 22 22 22
15 16 17 16 15 13 11 6 1 5 5 8 6 8 10 9 7 5 4 4 6 6 7 8 7 5 8 10 11 11 12 9 11 7 4 14 19 19 20 22 23 24 25
12 11 12 13 12 12 11 9 6 6 7 3 4 7 12 7 5 5 5 5 5 4 5 6 5 5 5 4 7 11 12 11 7 7 4 7 20 21 23 24 24 24 25
7 10 10 10 9 9 9 9 7 7 9 6 3 9 11 12 8 10 5 5 5 4 4 4 3 2 1 3 5 4 4 4 6 8 6 5 10 20 21 24 25 25 26
8 8 6 6 7 9 10 8 7 7 7 8 7 7 9 13 13 8 6 5 5 5 4 4 3 3 4 3 4 5 4 4 4 5 6 5 4 9 17 23 24 25 27
7 5 4 5 6 7 10 10 9 8 7 8 7 8 7 10 12 8 6 5 6 5 5 5 5 4 3 3 3 4 4 4 5 6 7 9 7 7 8 21 29 28 27
6 5 4 4 7 7 6 9 9 10 6 5 8 9 9 7 9 9 7 9 9 5 5 3 5 1 2 4 4 4 5 4 4 7 10 10 9 7 10 12 14 18 29
5 6 5 6 5 5 6 9 11 12 12 9 8 8 9 8 10 9 7 6 8 9 7 3 2 3 3 3 1 4 4 6 6 7 8 9 11 9 5 10 12 13 14
2 6 6 5 5 4 4 6 6 10 12 10 9 11 12 13 10 10 9 3 2 8 4 3 2 2 2 1 3 1 4 4 4 6 5 7 8 5 4 5 2 3 10
11 7 4 4 7 5 8 7 10 11 11 10 12 10 10 12 8 7 8 9 6 7 3 2 3 5 1 2 2 4 3 4 3 3 5 5 7 5 5 4 10 11 9
12 12 10 7 8 8 8 9 13 11 13 11 11 12 7 10 8 9 7 7 6 3 6 2 2 2 2 3 4 3 4 5 4 8 2 4 5 5 5 4 6 11 13
10 8 8 12 11 10 8 10 9 12 11 10 10 13 12 8 6 8 7 7 7 3 2 9 2 4 1 2 3 2 2 3 5 4 8 4 2 3 4 6 6 3 12
9 8 6 9 6 8 8 7 8 10 12 12 12 9 8 7 7 4 5 6 5 7 8 7 5 5 4 4 2 4 4 4 6 3 4 3 2 3 7 7 8 8 2
Wind_Direction
309 289 102 94 92 106 114 113 112 114 118 117 113 112 112 108 106 106 104 101 111 118 124 130 137 140 137 122 104 92 77 73 84 96 121 140 144 114 117 117 140 115 126
263 243 119 104 102 103 108 121 126 124 120 116 119 118 116 118 120 117 120 118 124 132 137 141 145 140 135 133 116 91 72 62 52 51 345 187 168 143 141 145 125 133 139
240 196 133 106 103 105 108 119 124 123 127 133 134 134 135 133 132 130 134 132 138 143 145 147 148 146 140 129 107 83 58 40 350 303 281 254 209 194 179 170 149 145 153
175 173 135 130 120 114 109 118 132 133 139 141 145 148 149 145 141 142 146 147 156 154 155 156 158 158 148 138 131 117 308 299 293 286 274 253 253 199 191 183 176 163 166
173 153 150 151 134 120 121 117 126 126 134 142 152 155 159 154 154 155 157 166 170 174 162 166 167 161 159 158 171 201 246 271 277 280 271 252 243 234 184 182 188 185 176
152 156 154 152 147 134 126 127 133 139 141 151 158 159 166 161 162 165 172 175 183 188 189 190 182 176 178 182 193 215 241 257 270 272 271 269 241 171 178 184 193 191 173
141 149 160 150 146 147 154 155 164 156 150 159 166 171 174 178 182 180 183 191 199 204 202 205 195 198 204 213 216 225 237 251 262 268 269 271 205 196 183 184 189 173 171
155 151 152 147 154 167 175 169 168 158 157 163 175 180 188 195 192 193 199 201 209 220 221 217 208 203 210 216 224 232 238 249 261 265 269 268 237 189 188 183 187 175 160
134 156 159 163 161 178 177 150 161 161 164 170 179 191 194 192 200 206 208 220 221 224 234 242 237 225 220 226 230 236 242 248 245 253 270 269 215 196 184 181 183 180 163
150 141 114 129 179 165 140 177 163 164 178 200 198 186 189 193 196 207 216 218 222 222 221 224 229 231 230 235 239 244 247 253 252 248 256 261 211 194 189 183 176 166 163
69 139 109 120 76 345 189 170 159 158 180 197 230 253 240 230 193 202 211 209 215 216 216 218 222 227 230 231 235 241 249 247 238 246 246 246 211 201 190 178 166 164 166
46 58 73 50 72 257 281 96 177 162 214 211 195 186 180 231 232 208 209 218 220 218 218 217 219 220 224 221 231 242 239 236 235 246 245 239 208 196 182 174 168 166 169
39 42 100 119 125 123 33 75 265 247 244 237 236 155 165 218 232 220 192 217 208 219 223 223 225 224 221 224 230 231 228 227 235 243 247 246 212 193 185 179 173 171 172
33 30 15 21 22 359 110 156 200 228 268 274 253 162 198 216 210 222 239 185 193 200 210 220 219 229 226 233 231 239 234 219 222 236 249 221 197 192 188 183 178 176 175
43 28 13 6 8 0 3 347 196 207 237 242 227 195 197 219 215 214 208 181 193 189 198 219 216 207 225 234 236 234 246 233 228 230 223 209 194 197 192 186 185 182 180
45 34 23 13 360 353 349 339 319 319 310 223 227 222 201 211 210 211 206 215 204 186 194 211 205 206 220 206 241 241 256 257 241 244 207 192 194 195 199 194 190 187 186
54 43 27 9 1 349 337 328 324 310 316 305 239 226 218 204 214 209 183 210 205 209 230 258 257 229 254 293 293 293 283 302 298 279 251 189 198 207 203 193 196 191 189
65 53 36 16 354 339 329 313 303 298 295 296 292 289 210 209 204 204 186 200 208 211 195 216 237 263 253 257 281 290 297 300 309 348 327 310 228 203 212 202 201 197 192
104 81 52 26 1 339 336 335 321 294 287 283 285 283 248 203 191 183 188 205 205 208 196 197 224 200 220 267 275 294 302 291 295 310 285 283 290 233 224 213 194 199 199
128 115 87 32 3 348 354 349 335 323 300 287 287 284 271 221 209 192 193 202 203 188 211 193 193 236 225 240 260 272 276 282 287 286 285 283 266 249 232 218 207 199 196
149 130 100 54 3 17 4 356 346 333 320 303 296 279 289 258 210 203 205 213 212 189 213 166 101 181 281 251 333 284 270 254 265 263 261 263 268 259 222 217 227 198 185
3 111 89 70 31 21 9 353 344 329 320 302 297 288 281 274 221 190 203 220 355 338 70 1 299 285 247 203 218 152 304 313 283 269 270 266 271 253 250 220 96 142 175
18 78 102 76 48 26 16 360 358 348 341 343 336 329 329 331 25 53 97 89 61 151 118 121 147 138 183 293 221 186 301 256 301 270 290 276 275 278 259 221 201 208 187
30 23 8 29 40 24 24 18 16 359 343 336 339 337 348 21 24 24 22 43 86 72 38 293 282 98 120 284 324 238 223 219 263 302 255 286 290 301 315 255 231 211 178
36 34 38 25 14 7 13 31 18 2 345 334 343 348 351 349 28 56 38 16 3 52 309 262 22 355 210 191 223 274 277 264 250 232 292 290 297 12 8 39 2 252 145
33 17 23 42 28 5 345 10 43 13 343 340 347 5 1 3 357 8 89 88 30 350 324 302 315 288 299 258 272 262 246 256 286 283 268 278 248 34 48 17 29 50 25